User: anonymous   Login
Location: Unspecified
(0.0000°N, 0.0000°E)
Time: 06:17:15
(UTC+00:00)
Language:

MOZHAYETS 4 - Orbit

View from above orbital plane
View from above orbital plane
View from above satellite
View from above satellite

Ground track
Ground track

The orbit data is extracted from the following two-line orbital elements,

1 27939U 03042A   17119.94863328 +.00000146 +00000-0 +34705-4 0  9995
2 27939 097.9318 266.2647 0013468 025.3927 087.0264 14.66554344726107
Epoch (UTC): 29 April 2017 22:46:01
Eccentricity: 0.0013468
inclination: 97.9318°
perigee height: 662 km
apogee height: 681 km
right ascension of ascending node: 266.2647°
argument of perigee: 25.3927°
revolutions per day: 14.66554344
mean anomaly at epoch: 87.0264°
orbit number at epoch: 72610

The dashed part of the orbit path shows where the satellite is in the earth's shadow,  

DLR